Location: Black Swamp Observatory
(41.3920°N, 84.1250°W)
Time: 19:55:24
(UTC-04:00)

Courier 1B - Pass Details

Date: 30 January 2022
Orbit: 962 x 1209 km, 28.3° (Epoch: 20 May)

Event Time Altitude Azimuth Distance (km) Brightness Sun altitude
Rises 19:59:05 0° 250° (WSW) 4,013 11.9 -24.3°
Reaches altitude 10° 20:02:13 10° 240° (WSW) 3,082 10.9 -24.9°
Maximum altitude 20:08:43 31° 182° (S) 1,978 9.1 -26.1°
Enters shadow 20:11:13 25° 152° (SSE) 2,189 9.0 -26.5°
